Regional Weather Roundup
Issued by NWS

Home | Current Version | Previous Version | Graphics & Text | Print | Product List | Glossary On
Versions: 1 2 3 4 5 6 7 8 9 10 11 12 13 14 15 16 17 18 19 20 21 22 23 24 25 26 27 28 29 30 31 32 33 34 35 36 37 38 39 40 41 42 43 44 45 46 47 48 49 50
000
ASUS43 KFSD 211802
RWRSD

WEATHER ROUNDUP FOR SOUTH DAKOTA
NATIONAL WEATHER SERVICE SIOUX FALLS SD
100 PM CDT MON MAY 21 2018

NOTE: "FAIR" INDICATES FEW OR NO CLOUDS BELOW 12,000 FEET WITH NO
SIGNIFICANT WEATHER AND/OR OBSTRUCTIONS TO VISIBILITY.


SDZ001>005-009-010-012>017-211900-
NORTHWEST AND NORTH CENTRAL SOUTH DAKOTA

CITY           SKY/WX    TMP DP  RH WIND       PRES   REMARKS
FAITH            N/A     68  49  50 VRB7G17   29.96F
MOBRIDGE       SUNNY     67  45  45 S9        29.97F
$$

SDZ012>016-024>037-041>051-057-063-072>074-211900-
SOUTHWEST AND SOUTH CENTRAL SOUTH DAKOTA

CITY           SKY/WX    TMP DP  RH WIND       PRES   REMARKS
RAPID CTY ARPT SUNNY     67  52  58 SE18G25   29.95F
PIERRE         SUNNY     67  45  45 CALM      29.97F
CUSTER         SUNNY     65  44  46 SW5       30.02S
ELLSWORTH AFB  SUNNY     68  54  60 S17       29.94F
PHILIP         SUNNY     70  46  42 VRB7      29.96F
PINE RIDGE     SUNNY     71  54  54 SW14      29.97F
SPEARFISH      FAIR      64  48  55 NE6       29.98R
WINNER         FAIR      71  46  40 SE6       29.99F
$$

SDZ004>011-016>023-039-040-211900-
NORTHEAST SOUTH DAKOTA

CITY           SKY/WX    TMP DP  RH WIND       PRES   REMARKS
ABERDEEN       CLOUDY    69  53  56 SW6       30.00F
WATERTOWN      CLOUDY    58  57  97 S3        30.02S
BROOKINGS      CLOUDY    60  55  83 S6        30.03S
SISSETON         N/A     65  55  70 SE12      30.01F
$$

SDZ017-020-022-023-036>040-048>070-211900-
SOUTHEAST SOUTH DAKOTA

CITY           SKY/WX    TMP DP  RH WIND       PRES   REMARKS
SIOUX FALLS    CLOUDY    60  57  89 S5        30.02F
HURON          CLOUDY    61  54  77 SW6       30.01F
CHAMBERLAIN    SUNNY     70  50  48 S3        29.99F
MITCHELL       CLOUDY    64  55  72 CALM      30.02F
YANKTON        CLOUDY    62  54  74 VRB3      30.03S
$$

ABBREVIATIONS USED IN REMARKS
   TC - TEMPERATURE IN CELSIUS
  WCI - WIND CHILL INDEX
   HX - HEAT INDEX
  VSB - VISIBILITY





USA.gov is the U.S. government's official web portal to all federal, state and local government web resources and services.